User: anonymous
Location: Caltech
(34.1382°N, 118.1253°W)
Time: 03:41:36
(UTC-07:00)
Language:

Cosmos 1697 Rocket - Orbit

View from above orbital plane
View from above orbital plane
View from above satellite
View from above satellite

Ground track
Ground track

The orbit data is extracted from the following two-line orbital elements,

1 16182U 85097B   14209.15677686 -.00000234  00000-0 -94125-4 0  3258
2 16182 071.0034 067.6511 0009645 250.0331 258.0604 14.16123833486857
Epoch (UTC): 28 July 2014 03:45:45
Eccentricity: 0.0009645
inclination: 71.0034°
perigee height: 831 km
apogee height: 845 km
right ascension of ascending node: 67.6511°
argument of perigee: 250.0331°
revolutions per day: 14.16123833
mean anomaly at epoch: 258.0604°
orbit number at epoch: 48685

The dashed part of the orbit path shows where the satellite is in the earth's shadow,  

DLR